Regional Weather Roundup
Issued by NWS

Home | Current Version | Previous Version | Graphics & Text | Print | Product List | Glossary On
Versions: 1 2 3 4 5 6 7 8 9 10 11 12 13 14 15 16 17 18 19 20 21 22 23 24 25 26 27 28 29 30 31 32 33 34 35 36 37 38 39 40 41 42 43 44 45 46 47 48 49 50
000
ASUS43 KIND 110409
RWRIN

WEATHER ROUNDUP FOR INDIANA
NATIONAL WEATHER SERVICE INDIANAPOLIS IN
1200 AM EDT FRI JUL 11 2014

NOTE: "FAIR" INDICATES FEW OR NO CLOUDS BELOW 12,000 FEET WITH NO
SIGNIFICANT WEATHER AND/OR OBSTRUCTIONS TO VISIBILITY.

* - STATION DOES NOT REPORT WEATHER SUCH AS PRECIPITATION OR FOG.

+ - STATION NOT QUALITY CONTROLLED BY THE NATIONAL WEATHER SERVICE.
    USE DATA WITH CAUTION...ESPECIALLY DEWPOINT AND RELATIVE
    HUMIDITY OBSERVATIONS.

INZ001>003-010>013-019-020-110500-
NORTHWEST INDIANA

CITY           SKY/WX    TMP DP  RH WIND       PRES   REMARKS
GARY /AIRPORT/ CLEAR     60  58  92 CALM      30.19R
KNOX *+        CLEAR     56  53  89 CALM      30.18S
LA PORTE +     CLEAR     56  53  90 CALM      30.20R
MICHIGAN CITY+ CLEAR     55  54  94 CALM      30.20R
MONTICELLO +   CLEAR     61  56  83 CALM      30.17S
RENSSELAER +   CLEAR     55  54  94 NE3       30.18S
VALPARAISO     CLEAR     56  51  84 NE3       30.19R

$$

LMZ046-743>745-110500-
SOUTHERN LAKE MICHIGAN

STATION/POSITION TIME  TEMP WIND        PRES
                       AIR  DIR/SP/G
                 (UTC) (F)  (DEG/KT/KT) (MB)
MICHIGAN CITY    0400   66   80/  2/  4   N/A

$$

INZ004-005-014>016-021>024-110500-
NORTH CENTRAL INDIANA

CITY           SKY/WX    TMP DP  RH WIND       PRES   REMARKS
GOSHEN         CLEAR     60  56  86 CALM      30.19R
LOGANSPORT +   CLEAR     59  52  77 CALM      30.19R
PERU/GRISSOM   CLEAR     61  58  88 CALM      30.18R
ROCHESTER +    CLEAR     61  54  77 CALM      30.19R
SOUTH BEND     CLEAR     60  54  80 CALM      30.20R
WARSAW +       CLEAR     57  54  88 CALM      30.19R

$$

INZ006>009-017-018-025>027-110500-
NORTHEAST INDIANA

CITY           SKY/WX    TMP DP  RH WIND       PRES   REMARKS
ANGOLA *+      CLEAR     57  55  94 CALM      30.19R
AUBURN +       CLEAR     61  54  77 CALM      30.19S
FORT WAYNE     CLEAR     61  54  77 CALM      30.19R
HUNTINGTON +   CLEAR     59  55  85 CALM      30.19R

$$

INZ028-029-035-036-043>045-051>053-110500-
WEST CENTRAL INDIANA

CITY           SKY/WX    TMP DP  RH WIND       PRES   REMARKS
GREENCASTLE +  CLEAR     64  55  72 CALM      30.18S
LAFAYETTE      CLEAR     60  57  89 CALM      30.17R
TERRE HAUTE    CLEAR     63  57  81 NE5       30.17R

$$

INZ030>032-037>040-046>048-054>057-064-065-110500-
CENTRAL INDIANA

CITY           SKY/WX    TMP DP  RH WIND       PRES   REMARKS
CP ATTERBURY + CLEAR     59  57  94 CALM      30.18R
FRANKFORT +    CLEAR     59  59 100 CALM      30.20
GREENWOOD *+   CLEAR     66  57  72 CALM      30.19
INDIANAPOLIS   CLEAR     67  53  61 NE6       30.17R
-EAGLE CREEK   CLEAR     66  54  65 CALM      30.17R
KOKOMO *+      CLEAR     61  54  77 CALM      30.19R
MARION +       CLEAR     58  54  86 CALM      30.19S
MT COMFORT *+  CLEAR     61  61 100 CALM      30.19R
SHELBYVILLE    CLEAR     63  56  78 N3        30.17R
ZIONSVILLE +   CLEAR     61  56  83 CALM      30.19S

$$

INZ033-034-041-042-049-050-058-059-110500-
EAST CENTRAL INDIANA

CITY           SKY/WX    TMP DP  RH WIND       PRES   REMARKS
MUNCIE         CLEAR     63  55  75 CALM      30.19R

$$

INZ060-061-067>069-081>083-085>088-110500-
SOUTHWEST INDIANA

CITY           SKY/WX    TMP DP  RH WIND       PRES   REMARKS
EVANSVILLE     CLEAR     73  60  63 CALM      30.15R
HUNTINGBURG *+ CLEAR     66  57  72 CALM      30.15R
WASHINGTON +   CLEAR     62  60  94 CALM      30.15R

$$

INZ062-063-066-070>080-084-089>092-110500-
SOUTH CENTRAL AND SOUTHEAST INDIANA

CITY           SKY/WX    TMP DP  RH WIND       PRES   REMARKS
BLOOMINGTON    CLEAR     61  57  87 CALM      30.17R

$$



USA.gov is the U.S. government's official web portal to all federal, state and local government web resources and services.